QPF
0.00 0.00 0.00 0.00 0.01 0.03 0.04 0.03 0.00 0.00 0.00 0.00 0.00 0.00 0.00 0.00 0.00 0.00 0.00 0.00 0.00 0.00 0.00 0.00 0.00 0.00 0.00 0.00 0.00 0.00 0.00 0.00 0.00 0.00 0.00 0.00 0.00 0.00 0.00 0.00 0.00 0.00 0.00 0.00 0.00 0.00 0.00 0.00 0.00
0.00 0.00 0.00 0.00 0.00 0.01 0.03 0.02 0.01 0.00 0.00 0.00 0.00 0.00 0.00 0.00 0.00 0.00 0.00 0.00 0.00 0.00 0.00 0.00 0.00 0.00 0.00 0.00 0.00 0.00 0.00 0.00 0.00 0.00 0.00 0.00 0.00 0.00 0.00 0.00 0.00 0.00 0.00 0.00 0.00 0.00 0.00 0.00 0.00
0.00 0.00 0.00 0.00 0.00 0.01 0.02 0.02 0.00 0.00 0.00 0.00 0.00 0.00 0.00 0.00 0.00 0.00 0.00 0.00 0.00 0.00 0.00 0.00 0.00 0.00 0.00 0.00 0.00 0.00 0.00 0.00 0.00 0.00 0.00 0.00 0.00 0.00 0.00 0.00 0.00 0.00 0.00 0.00 0.00 0.00 0.00 0.00 0.00
0.00 0.00 0.00 0.00 0.00 0.01 0.01 0.01 0.00 0.00 0.00 0.00 0.00 0.00 0.00 0.00 0.00 0.00 0.00 0.00 0.00 0.00 0.00 0.00 0.00 0.00 0.00 0.00 0.00 0.00 0.00 0.00 0.00 0.00 0.00 0.00 0.00 0.00 0.00 0.00 0.00 0.00 0.00 0.00 0.00 0.00 0.00 0.00 0.00
0.00 0.00 0.00 0.00 0.01 0.02 0.02 0.01 0.00 0.00 0.00 0.00 0.00 0.00 0.00 0.00 0.00 0.00 0.00 0.00 0.00 0.00 0.00 0.00 0.00 0.00 0.00 0.00 0.00 0.00 0.00 0.00 0.00 0.00 0.00 0.00 0.00 0.00 0.00 0.00 0.00 0.00 0.00 0.00 0.00 0.00 0.00 0.00 0.00
0.00 0.00 0.00 0.00 0.01 0.02 0.03 0.01 0.00 0.00 0.00 0.00 0.00 0.00 0.00 0.00 0.00 0.00 0.00 0.00 0.00 0.00 0.00 0.00 0.00 0.00 0.00 0.00 0.00 0.00 0.00 0.00 0.00 0.00 0.00 0.00 0.00 0.00 0.00 0.00 0.00 0.00 0.01 0.01 0.00 0.00 0.00 0.00 0.00
0.00 0.00 0.00 0.00 0.00 0.00 0.01 0.01 0.00 0.00 0.00 0.00 0.00 0.00 0.00 0.00 0.00 0.00 0.00 0.00 0.00 0.00 0.00 0.00 0.00 0.00 0.00 0.00 0.00 0.00 0.00 0.00 0.00 0.00 0.00 0.00 0.00 0.00 0.00 0.01 0.01 0.01 0.01 0.01 0.00 0.00 0.00 0.00 0.00
0.00 0.00 0.00 0.00 0.00 0.00 0.00 0.01 0.01 0.00 0.00 0.00 0.00 0.00 0.00 0.00 0.00 0.00 0.00 0.00 0.00 0.00 0.00 0.00 0.00 0.00 0.00 0.00 0.00 0.00 0.00 0.00 0.00 0.00 0.00 0.00 0.00 0.00 0.00 0.00 0.01 0.01 0.01 0.02 0.01 0.00 0.00 0.00 0.00
0.00 0.00 0.00 0.00 0.00 0.00 0.00 0.01 0.01 0.01 0.00 0.00 0.00 0.00 0.00 0.00 0.00 0.00 0.00 0.00 0.00 0.00 0.00 0.00 0.00 0.00 0.00 0.00 0.00 0.00 0.00 0.00 0.00 0.00 0.00 0.00 0.00 0.00 0.00 0.00 0.01 0.02 0.04 0.04 0.03 0.02 0.01 0.00 0.00
0.00 0.00 0.00 0.00 0.00 0.00 0.00 0.00 0.00 0.00 0.00 0.00 0.00 0.00 0.00 0.00 0.00 0.00 0.00 0.00 0.00 0.00 0.00 0.00 0.00 0.00 0.00 0.00 0.00 0.00 0.00 0.00 0.00 0.00 0.00 0.00 0.00 0.00 0.00 0.00 0.03 0.09 0.13 0.10 0.07 0.05 0.02 0.01 0.01
0.00 0.00 0.00 0.00 0.00 0.00 0.00 0.00 0.00 0.00 0.00 0.00 0.00 0.01 0.00 0.00 0.00 0.00 0.00 0.00 0.00 0.00 0.00 0.00 0.00 0.00 0.00 0.00 0.00 0.00 0.00 0.00 0.00 0.00 0.00 0.00 0.00 0.00 0.00 0.00 0.01 0.05 0.11 0.05 0.05 0.05 0.02 0.01 0.01
0.00 0.00 0.00 0.00 0.00 0.00 0.00 0.00 0.00 0.00 0.00 0.00 0.01 0.00 0.00 0.00 0.00 0.00 0.00 0.00 0.00 0.00 0.00 0.00 0.00 0.00 0.00 0.00 0.00 0.00 0.00 0.00 0.00 0.00 0.00 0.00 0.00 0.00 0.00 0.00 0.00 0.00 0.01 0.02 0.02 0.01 0.01 0.00 0.00
0.00 0.00 0.00 0.00 0.00 0.00 0.00 0.00 0.00 0.00 0.00 0.00 0.00 0.00 0.00 0.00 0.00 0.00 0.00 0.00 0.00 0.00 0.00 0.00 0.00 0.00 0.00 0.00 0.00 0.00 0.00 0.00 0.00 0.00 0.00 0.00 0.00 0.00 0.00 0.00 0.00 0.00 0.00 0.00 0.00 0.00 0.00 0.00 0.00
0.00 0.00 0.00 0.00 0.00 0.00 0.00 0.00 0.00 0.00 0.00 0.00 0.00 0.00 0.00 0.00 0.00 0.00 0.00 0.00 0.00 0.00 0.00 0.00 0.00 0.00 0.00 0.00 0.00 0.00 0.00 0.00 0.00 0.00 0.00 0.00 0.00 0.00 0.00 0.00 0.00 0.00 0.00 0.00 0.00 0.00 0.01 0.01 0.01
0.00 0.00 0.00 0.00 0.00 0.00 0.00 0.00 0.00 0.00 0.00 0.00 0.00 0.00 0.00 0.00 0.00 0.00 0.00 0.00 0.00 0.00 0.00 0.00 0.00 0.00 0.00 0.00 0.00 0.01 0.01 0.00 0.00 0.00 0.00 0.01 0.01 0.00 0.00 0.00 0.00 0.00 0.00 0.00 0.00 0.00 0.00 0.02 0.02
0.00 0.00 0.00 0.00 0.00 0.00 0.00 0.00 0.00 0.00 0.00 0.00 0.00 0.00 0.00 0.00 0.00 0.00 0.00 0.00 0.00 0.00 0.00 0.01 0.01 0.01 0.01 0.01 0.01 0.02 0.03 0.03 0.02 0.01 0.02 0.02 0.02 0.01 0.01 0.01 0.01 0.01 0.00 0.00 0.00 0.00 0.00 0.01 0.02
0.00 0.00 0.00 0.00 0.00 0.00 0.00 0.00 0.00 0.00 0.00 0.00 0.00 0.00 0.00 0.00 0.00 0.01 0.02 0.03 0.02 0.01 0.01 0.02 0.02 0.02 0.02 0.02 0.03 0.04 0.05 0.05 0.05 0.05 0.06 0.06 0.05 0.03 0.02 0.02 0.01 0.02 0.01 0.01 0.00 0.00 0.01 0.01 0.02
0.00 0.00 0.00 0.00 0.00 0.00 0.00 0.00 0.00 0.00 0.00 0.00 0.00 0.01 0.01 0.01 0.01 0.03 0.06 0.05 0.05 0.05 0.03 0.03 0.04 0.05 0.06 0.07 0.08 0.07 0.07 0.08 0.11 0.11 0.11 0.10 0.08 0.05 0.02 0.01 0.01 0.01 0.01 0.01 0.01 0.01 0.02 0.02 0.04
0.00 0.00 0.00 0.00 0.00 0.00 0.00 0.00 0.00 0.00 0.00 0.01 0.01 0.01 0.02 0.02 0.03 0.03 0.05 0.04 0.04 0.05 0.05 0.06 0.09 0.15 0.20 0.22 0.24 0.24 0.22 0.19 0.17 0.15 0.12 0.10 0.08 0.05 0.04 0.02 0.02 0.01 0.00 0.00 0.01 0.02 0.02 0.02 0.06
0.00 0.00 0.00 0.00 0.00 0.00 0.00 0.00 0.00 0.00 0.01 0.02 0.02 0.04 0.05 0.06 0.06 0.06 0.05 0.04 0.04 0.06 0.09 0.14 0.21 0.28 0.38 0.46 0.50 0.51 0.48 0.39 0.29 0.23 0.17 0.13 0.10 0.07 0.05 0.03 0.01 0.00 0.00 0.00 0.01 0.02 0.02 0.01 0.05
0.00 0.00 0.00 0.00 0.00 0.00 0.00 0.00 0.00 0.01 0.02 0.05 0.09 0.14 0.16 0.16 0.15 0.15 0.13 0.12 0.10 0.12 0.16 0.25 0.37 0.46 0.54 0.62 0.65 0.63 0.61 0.56 0.42 0.29 0.20 0.15 0.11 0.07 0.04 0.02 0.00 0.00 0.00 0.00 0.00 0.01 0.02 0.02 0.03
0.00 0.00 0.00 0.00 0.00 0.00 0.00 0.00 0.00 0.00 0.02 0.06 0.11 0.16 0.20 0.20 0.19 0.20 0.21 0.19 0.17 0.19 0.24 0.37 0.51 0.60 0.67 0.73 0.74 0.68 0.59 0.47 0.36 0.27 0.19 0.14 0.08 0.04 0.02 0.00 0.00 0.00 0.00 0.00 0.00 0.00 0.02 0.03 0.02
0.00 0.00 0.00 0.00 0.00 0.00 0.00 0.00 0.00 0.00 0.01 0.03 0.06 0.11 0.15 0.15 0.15 0.17 0.23 0.27 0.29 0.35 0.43 0.50 0.58 0.64 0.67 0.67 0.66 0.61 0.49 0.37 0.28 0.19 0.13 0.08 0.04 0.02 0.00 0.00 0.00 0.00 0.00 0.00 0.00 0.01 0.02 0.04 0.05
0.00 0.00 0.00 0.00 0.00 0.00 0.00 0.00 0.00 0.00 0.01 0.01 0.03 0.06 0.11 0.14 0.16 0.19 0.25 0.33 0.40 0.52 0.62 0.67 0.66 0.63 0.60 0.56 0.55 0.49 0.39 0.28 0.19 0.13 0.08 0.04 0.01 0.00 0.00 0.00 0.00 0.00 0.00 0.00 0.00 0.01 0.02 0.04 0.06
0.00 0.00 0.00 0.00 0.00 0.00 0.00 0.00 0.00 0.00 0.01 0.01 0.02 0.04 0.07 0.12 0.15 0.17 0.22 0.31 0.42 0.48 0.51 0.54 0.49 0.43 0.38 0.34 0.30 0.27 0.22 0.15 0.08 0.05 0.03 0.01 0.00 0.00 0.00 0.00 0.00 0.00 0.00 0.00 0.00 0.01 0.02 0.04 0.06
0.00 0.00 0.00 0.00 0.00 0.00 0.00 0.00 0.00 0.00 0.00 0.01 0.01 0.03 0.06 0.09 0.13 0.15 0.16 0.19 0.25 0.31 0.34 0.37 0.36 0.33 0.31 0.25 0.18 0.13 0.09 0.06 0.03 0.01 0.01 0.00 0.00 0.00 0.00 0.00 0.00 0.00 0.00 0.00 0.00 0.01 0.02 0.03 0.05
0.00 0.00 0.00 0.00 0.00 0.00 0.00 0.00 0.00 0.00 0.00 0.00 0.01 0.02 0.04 0.07 0.09 0.11 0.12 0.13 0.14 0.19 0.24 0.27 0.29 0.30 0.30 0.26 0.18 0.11 0.06 0.03 0.02 0.01 0.00 0.00 0.00 0.00 0.00 0.00 0.00 0.00 0.00 0.00 0.00 0.00 0.01 0.03 0.06
0.00 0.00 0.00 0.00 0.00 0.00 0.00 0.00 0.00 0.00 0.00 0.01 0.01 0.01 0.03 0.05 0.06 0.07 0.07 0.08 0.10 0.13 0.18 0.23 0.25 0.25 0.22 0.18 0.12 0.06 0.03 0.01 0.00 0.00 0.00 0.00 0.00 0.00 0.00 0.00 0.00 0.00 0.00 0.00 0.00 0.00 0.01 0.03 0.05
0.00 0.00 0.00 0.00 0.00 0.00 0.00 0.00 0.00 0.00 0.00 0.00 0.00 0.01 0.03 0.04 0.04 0.05 0.06 0.07 0.08 0.10 0.13 0.16 0.19 0.20 0.18 0.11 0.06 0.03 0.02 0.01 0.00 0.00 0.00 0.00 0.00 0.00 0.00 0.00 0.00 0.00 0.00 0.00 0.00 0.00 0.00 0.01 0.02
0.00 0.00 0.00 0.00 0.00 0.00 0.00 0.00 0.00 0.00 0.00 0.00 0.00 0.01 0.02 0.03 0.04 0.05 0.09 0.11 0.11 0.12 0.14 0.16 0.16 0.17 0.15 0.10 0.06 0.03 0.01 0.00 0.00 0.00 0.00 0.00 0.00 0.00 0.00 0.00 0.00 0.00 0.00 0.00 0.00 0.00 0.00 0.01 0.01
MSLP
1009.27 1010.10 1011.05 1011.97 1012.70 1013.17 1013.33 1013.22 1012.94 1012.61 1012.35 1012.24 1012.30 1012.49 1012.73 1012.93 1013.00 1012.92 1012.68 1012.36 1012.06 1011.86 1011.84 1012.02 1012.38 1012.85 1013.34 1013.77 1014.08 1014.25 1014.30 1014.29 1014.29 1014.36 1014.51 1014.76 1015.07 1015.38 1015.66 1015.87 1016.00 1016.05 1016.07 1016.08 1016.12 1016.20 1016.32 1016.46 1016.60
1009.69 1010.65 1011.66 1012.56 1013.20 1013.50 1013.46 1013.13 1012.64 1012.12 1011.71 1011.49 1011.48 1011.63 1011.87 1012.10 1012.22 1012.21 1012.06 1011.85 1011.65 1011.56 1011.64 1011.90 1012.32 1012.84 1013.36 1013.81 1014.14 1014.34 1014.43 1014.47 1014.51 1014.61 1014.78 1015.03 1015.31 1015.58 1015.81 1015.96 1016.04 1016.07 1016.07 1016.09 1016.14 1016.25 1016.38 1016.53 1016.67
1010.25 1011.30 1012.32 1013.15 1013.66 1013.78 1013.52 1012.99 1012.31 1011.65 1011.13 1010.84 1010.79 1010.94 1011.19 1011.44 1011.61 1011.66 1011.59 1011.47 1011.37 1011.37 1011.52 1011.85 1012.32 1012.86 1013.40 1013.87 1014.22 1014.44 1014.57 1014.64 1014.72 1014.85 1015.03 1015.27 1015.52 1015.75 1015.92 1016.02 1016.06 1016.07 1016.07 1016.09 1016.17 1016.29 1016.44 1016.60 1016.73
1010.91 1012.01 1012.99 1013.70 1014.04 1013.97 1013.52 1012.82 1012.00 1011.24 1010.67 1010.35 1010.30 1010.46 1010.74 1011.02 1011.23 1011.33 1011.33 1011.27 1011.25 1011.32 1011.53 1011.90 1012.40 1012.95 1013.49 1013.95 1014.30 1014.53 1014.68 1014.78 1014.89 1015.04 1015.23 1015.45 1015.68 1015.87 1016.00 1016.07 1016.08 1016.08 1016.08 1016.12 1016.22 1016.35 1016.51 1016.67 1016.81
1011.62 1012.70 1013.59 1014.16 1014.32 1014.05 1013.44 1012.61 1011.71 1010.92 1010.34 1010.05 1010.04 1010.24 1010.54 1010.85 1011.10 1011.23 1011.27 1011.26 1011.29 1011.41 1011.66 1012.05 1012.55 1013.09 1013.60 1014.04 1014.37 1014.60 1014.75 1014.87 1014.99 1015.15 1015.35 1015.57 1015.78 1015.95 1016.06 1016.11 1016.12 1016.12 1016.13 1016.19 1016.30 1016.44 1016.60 1016.75 1016.87
1012.29 1013.29 1014.05 1014.45 1014.43 1014.00 1013.27 1012.36 1011.44 1010.67 1010.15 1009.93 1009.98 1010.22 1010.57 1010.91 1011.17 1011.32 1011.38 1011.41 1011.47 1011.61 1011.88 1012.27 1012.75 1013.25 1013.72 1014.11 1014.41 1014.61 1014.75 1014.87 1015.01 1015.18 1015.39 1015.61 1015.82 1015.99 1016.10 1016.15 1016.17 1016.18 1016.21 1016.27 1016.38 1016.52 1016.67 1016.79 1016.88
1012.85 1013.73 1014.33 1014.54 1014.35 1013.80 1012.98 1012.05 1011.17 1010.47 1010.05 1009.92 1010.05 1010.36 1010.74 1011.09 1011.36 1011.52 1011.60 1011.64 1011.72 1011.88 1012.15 1012.52 1012.96 1013.41 1013.83 1014.16 1014.41 1014.57 1014.70 1014.81 1014.96 1015.14 1015.37 1015.60 1015.82 1016.00 1016.12 1016.18 1016.21 1016.23 1016.27 1016.34 1016.43 1016.55 1016.67 1016.76 1016.81
1013.23 1013.96 1014.38 1014.42 1014.09 1013.44 1012.59 1011.69 1010.88 1010.30 1009.99 1009.97 1010.18 1010.54 1010.95 1011.32 1011.59 1011.75 1011.83 1011.89 1011.97 1012.14 1012.40 1012.75 1013.15 1013.55 1013.90 1014.18 1014.37 1014.50 1014.61 1014.72 1014.87 1015.07 1015.31 1015.57 1015.80 1015.99 1016.12 1016.19 1016.23 1016.25 1016.28 1016.33 1016.41 1016.49 1016.57 1016.62 1016.64
1013.43 1013.99 1014.23 1014.11 1013.66 1012.95 1012.11 1011.27 1010.57 1010.11 1009.92 1010.00 1010.29 1010.69 1011.11 1011.48 1011.75 1011.91 1012.00 1012.07 1012.17 1012.34 1012.59 1012.92 1013.28 1013.63 1013.93 1014.16 1014.31 1014.42 1014.51 1014.63 1014.79 1015.01 1015.27 1015.53 1015.78 1015.97 1016.10 1016.17 1016.19 1016.20 1016.21 1016.23 1016.28 1016.33 1016.37 1016.39 1016.37
1013.46 1013.85 1013.92 1013.67 1013.13 1012.40 1011.59 1010.83 1010.24 1009.89 1009.81 1009.97 1010.30 1010.73 1011.16 1011.52 1011.78 1011.94 1012.04 1012.12 1012.24 1012.42 1012.68 1013.00 1013.34 1013.65 1013.91 1014.11 1014.24 1014.34 1014.43 1014.56 1014.74 1014.97 1015.24 1015.52 1015.76 1015.94 1016.06 1016.10 1016.10 1016.07 1016.04 1016.04 1016.05 1016.07 1016.09 1016.08 1016.04
1013.39 1013.62 1013.55 1013.18 1012.59 1011.86 1011.10 1010.42 1009.92 1009.66 1009.66 1009.86 1010.21 1010.63 1011.04 1011.39 1011.64 1011.80 1011.92 1012.03 1012.17 1012.37 1012.64 1012.96 1013.28 1013.58 1013.83 1014.01 1014.15 1014.25 1014.36 1014.51 1014.71 1014.96 1015.24 1015.51 1015.74 1015.90 1015.98 1015.98 1015.94 1015.87 1015.80 1015.76 1015.75 1015.75 1015.76 1015.75 1015.71
1013.30 1013.38 1013.19 1012.75 1012.12 1011.41 1010.70 1010.09 1009.66 1009.47 1009.49 1009.70 1010.03 1010.42 1010.79 1011.11 1011.34 1011.51 1011.64 1011.78 1011.95 1012.18 1012.46 1012.79 1013.11 1013.41 1013.67 1013.86 1014.01 1014.14 1014.29 1014.46 1014.69 1014.95 1015.23 1015.48 1015.68 1015.81 1015.85 1015.81 1015.72 1015.61 1015.51 1015.45 1015.42 1015.42 1015.43 1015.44 1015.41
1013.27 1013.23 1012.94 1012.45 1011.82 1011.12 1010.46 1009.91 1009.52 1009.34 1009.35 1009.53 1009.81 1010.13 1010.45 1010.72 1010.94 1011.10 1011.25 1011.41 1011.60 1011.85 1012.15 1012.48 1012.82 1013.13 1013.40 1013.63 1013.81 1013.99 1014.17 1014.38 1014.63 1014.90 1015.17 1015.40 1015.57 1015.66 1015.66 1015.58 1015.45 1015.32 1015.20 1015.12 1015.10 1015.11 1015.15 1015.17 1015.17
1013.36 1013.23 1012.87 1012.35 1011.73 1011.06 1010.44 1009.92 1009.54 1009.34 1009.31 1009.41 1009.61 1009.86 1010.10 1010.32 1010.51 1010.66 1010.81 1010.98 1011.18 1011.44 1011.74 1012.07 1012.41 1012.74 1013.03 1013.29 1013.53 1013.74 1013.97 1014.22 1014.48 1014.76 1015.01 1015.23 1015.37 1015.43 1015.39 1015.29 1015.15 1015.01 1014.89 1014.82 1014.81 1014.85 1014.90 1014.96 1014.97
1013.58 1013.38 1012.99 1012.47 1011.86 1011.23 1010.65 1010.14 1009.76 1009.51 1009.41 1009.42 1009.52 1009.67 1009.84 1010.00 1010.14 1010.28 1010.41 1010.56 1010.76 1010.99 1011.28 1011.60 1011.93 1012.26 1012.58 1012.87 1013.15 1013.41 1013.68 1013.95 1014.23 1014.50 1014.75 1014.94 1015.06 1015.10 1015.06 1014.96 1014.82 1014.69 1014.59 1014.55 1014.56 1014.61 1014.69 1014.76 1014.79
1013.89 1013.65 1013.25 1012.75 1012.19 1011.62 1011.06 1010.57 1010.17 1009.87 1009.68 1009.60 1009.59 1009.65 1009.73 1009.83 1009.93 1010.02 1010.13 1010.25 1010.40 1010.59 1010.83 1011.11 1011.42 1011.75 1012.07 1012.40 1012.71 1013.01 1013.31 1013.60 1013.89 1014.15 1014.38 1014.55 1014.66 1014.70 1014.67 1014.59 1014.48 1014.39 1014.32 1014.30 1014.33 1014.40 1014.48 1014.55 1014.57
1014.22 1013.97 1013.61 1013.16 1012.67 1012.16 1011.66 1011.18 1010.76 1010.41 1010.14 1009.96 1009.86 1009.82 1009.83 1009.87 1009.92 1009.97 1010.02 1010.09 1010.18 1010.30 1010.48 1010.70 1010.96 1011.26 1011.59 1011.92 1012.26 1012.59 1012.91 1013.21 1013.49 1013.74 1013.95 1014.11 1014.21 1014.26 1014.25 1014.21 1014.15 1014.10 1014.07 1014.08 1014.12 1014.18 1014.25 1014.29 1014.28
1014.50 1014.27 1013.98 1013.63 1013.24 1012.82 1012.37 1011.93 1011.49 1011.10 1010.76 1010.50 1010.31 1010.20 1010.15 1010.13 1010.12 1010.12 1010.12 1010.12 1010.13 1010.17 1010.26 1010.40 1010.61 1010.87 1011.18 1011.52 1011.87 1012.21 1012.54 1012.84 1013.11 1013.34 1013.52 1013.66 1013.76 1013.82 1013.85 1013.85 1013.84 1013.84 1013.84 1013.87 1013.90 1013.94 1013.97 1013.97 1013.91
1014.65 1014.50 1014.31 1014.10 1013.84 1013.53 1013.17 1012.77 1012.34 1011.91 1011.51 1011.18 1010.92 1010.75 1010.64 1010.57 1010.52 1010.48 1010.42 1010.34 1010.27 1010.21 1010.21 1010.27 1010.40 1010.62 1010.91 1011.24 1011.59 1011.95 1012.28 1012.57 1012.82 1013.02 1013.18 1013.30 1013.39 1013.46 1013.51 1013.55 1013.58 1013.61 1013.64 1013.67 1013.68 1013.68 1013.66 1013.59 1013.48
1014.66 1014.63 1014.60 1014.55 1014.45 1014.28 1014.02 1013.67 1013.24 1012.79 1012.34 1011.95 1011.62 1011.39 1011.23 1011.13 1011.05 1010.96 1010.85 1010.71 1010.56 1010.42 1010.32 1010.29 1010.36 1010.53 1010.79 1011.11 1011.47 1011.83 1012.16 1012.44 1012.67 1012.84 1012.97 1013.06 1013.13 1013.20 1013.27 1013.33 1013.39 1013.44 1013.47 1013.48 1013.47 1013.42 1013.33 1013.21 1013.04
1014.58 1014.71 1014.87 1015.01 1015.09 1015.07 1014.91 1014.61 1014.19 1013.70 1013.19 1012.73 1012.34 1012.05 1011.86 1011.72 1011.62 1011.50 1011.35 1011.16 1010.94 1010.72 1010.54 1010.45 1010.46 1010.58 1010.82 1011.13 1011.49 1011.85 1012.19 1012.46 1012.67 1012.81 1012.91 1012.97 1013.02 1013.07 1013.13 1013.19 1013.25 1013.30 1013.33 1013.31 1013.26 1013.15 1013.01 1012.84 1012.64
1014.50 1014.81 1015.18 1015.53 1015.79 1015.90 1015.83 1015.56 1015.13 1014.59 1014.01 1013.47 1013.01 1012.66 1012.41 1012.25 1012.12 1011.99 1011.81 1011.59 1011.33 1011.06 1010.83 1010.67 1010.63 1010.72 1010.94 1011.25 1011.61 1011.98 1012.32 1012.60 1012.79 1012.92 1012.99 1013.02 1013.03 1013.06 1013.09 1013.13 1013.18 1013.20 1013.20 1013.15 1013.05 1012.91 1012.73 1012.52 1012.30
1014.52 1015.03 1015.60 1016.15 1016.58 1016.81 1016.79 1016.53 1016.06 1015.44 1014.76 1014.11 1013.56 1013.13 1012.84 1012.64 1012.50 1012.36 1012.18 1011.94 1011.66 1011.36 1011.09 1010.89 1010.82 1010.88 1011.08 1011.38 1011.75 1012.14 1012.49 1012.77 1012.97 1013.09 1013.14 1013.14 1013.13 1013.11 1013.11 1013.12 1013.13 1013.12 1013.08 1012.99 1012.86 1012.69 1012.48 1012.26 1012.05
1014.74 1015.44 1016.20 1016.91 1017.46 1017.77 1017.78 1017.48 1016.93 1016.20 1015.40 1014.63 1013.97 1013.45 1013.10 1012.86 1012.71 1012.57 1012.40 1012.17 1011.88 1011.57 1011.28 1011.06 1010.96 1011.00 1011.18 1011.48 1011.85 1012.25 1012.62 1012.92 1013.13 1013.25 1013.29 1013.28 1013.24 1013.19 1013.15 1013.11 1013.08 1013.03 1012.95 1012.83 1012.67 1012.48 1012.27 1012.06 1011.87
1015.19 1016.05 1016.96 1017.79 1018.41 1018.74 1018.72 1018.36 1017.70 1016.84 1015.90 1015.00 1014.22 1013.62 1013.20 1012.93 1012.76 1012.63 1012.47 1012.26 1011.99 1011.69 1011.39 1011.15 1011.03 1011.04 1011.20 1011.49 1011.86 1012.26 1012.65 1012.97 1013.20 1013.34 1013.39 1013.37 1013.31 1013.24 1013.16 1013.09 1013.01 1012.92 1012.81 1012.67 1012.50 1012.30 1012.10 1011.91 1011.75
1015.85 1016.82 1017.81 1018.70 1019.34 1019.64 1019.55 1019.09 1018.31 1017.32 1016.25 1015.22 1014.33 1013.65 1013.17 1012.87 1012.70 1012.58 1012.45 1012.27 1012.02 1011.73 1011.43 1011.18 1011.04 1011.02 1011.15 1011.41 1011.76 1012.16 1012.56 1012.90 1013.16 1013.32 1013.39 1013.38 1013.33 1013.24 1013.14 1013.04 1012.93 1012.81 1012.68 1012.52 1012.34 1012.16 1011.97 1011.81 1011.69
1016.62 1017.63 1018.65 1019.52 1020.11 1020.34 1020.16 1019.59 1018.69 1017.58 1016.41 1015.28 1014.32 1013.58 1013.06 1012.75 1012.59 1012.49 1012.39 1012.24 1012.02 1011.75 1011.46 1011.20 1011.03 1010.98 1011.06 1011.28 1011.61 1011.98 1012.37 1012.72 1013.00 1013.19 1013.29 1013.31 1013.27 1013.19 1013.08 1012.97 1012.85 1012.71 1012.57 1012.41 1012.24 1012.07 1011.91 1011.78 1011.69
1017.34 1018.35 1019.31 1020.11 1020.61 1020.73 1020.44 1019.77 1018.78 1017.60 1016.36 1015.19 1014.20 1013.44 1012.92 1012.62 1012.47 1012.40 1012.34 1012.23 1012.04 1011.79 1011.51 1011.25 1011.05 1010.96 1010.99 1011.16 1011.44 1011.78 1012.14 1012.49 1012.78 1012.99 1013.12 1013.17 1013.16 1013.11 1013.02 1012.92 1012.80 1012.67 1012.53 1012.39 1012.24 1012.09 1011.96 1011.85 1011.78
1017.88 1018.80 1019.66 1020.32 1020.69 1020.69 1020.30 1019.55 1018.52 1017.32 1016.09 1014.95 1013.98 1013.26 1012.77 1012.51 1012.40 1012.37 1012.34 1012.27 1012.12 1011.90 1011.63 1011.36 1011.14 1011.01 1011.00 1011.10 1011.32 1011.61 1011.94 1012.27 1012.55 1012.78 1012.94 1013.03 1013.06 1013.04 1012.99 1012.91 1012.82 1012.72 1012.61 1012.49 1012.37 1012.24 1012.13 1012.04 1011.98
1018.12 1018.90 1019.60 1020.10 1020.31 1020.19 1019.73 1018.94 1017.93 1016.78 1015.62 1014.56 1013.68 1013.04 1012.63 1012.42 1012.36 1012.37 1012.39 1012.36 1012.24 1012.05 1011.81 1011.54 1011.31 1011.15 1011.09 1011.14 1011.29 1011.53 1011.81 1012.11 1012.38 1012.62 1012.80 1012.92 1013.00 1013.03 1013.02 1012.99 1012.95 1012.89 1012.82 1012.73 1012.64 1012.55 1012.46 1012.38 1012.31
Thickness
5829 5829 5827 5819 5805 5790 5788 5799 5809 5813 5816 5826 5829 5824 5815 5809 5802 5800 5820 5828 5826 5820 5813 5808 5804 5800 5797 5794 5792 5790 5789 5787 5786 5784 5783 5781 5780 5778 5776 5774 5772 5770 5768 5766 5765 5764 5763 5761 5759
5830 5830 5823 5812 5792 5776 5787 5805 5808 5816 5823 5830 5830 5825 5817 5813 5819 5819 5823 5827 5826 5821 5816 5810 5805 5801 5797 5794 5791 5789 5787 5786 5785 5783 5782 5781 5779 5778 5776 5774 5771 5769 5768 5766 5764 5762 5761 5760 5758
5831 5829 5813 5801 5789 5782 5793 5811 5814 5823 5830 5830 5823 5824 5818 5816 5822 5824 5828 5829 5825 5821 5817 5812 5807 5803 5798 5794 5791 5789 5787 5785 5784 5782 5781 5779 5778 5777 5775 5773 5771 5768 5766 5765 5763 5761 5759 5758 5756
5827 5817 5807 5793 5791 5801 5809 5819 5822 5821 5826 5829 5822 5815 5822 5830 5830 5831 5832 5829 5824 5821 5817 5813 5809 5804 5800 5795 5792 5789 5787 5785 5783 5781 5779 5778 5777 5775 5773 5772 5770 5767 5765 5763 5762 5760 5758 5756 5755
5821 5805 5789 5779 5790 5806 5821 5829 5827 5821 5821 5823 5819 5811 5814 5829 5834 5833 5832 5828 5823 5820 5817 5813 5808 5804 5800 5796 5792 5789 5786 5784 5782 5780 5778 5776 5775 5773 5772 5770 5768 5766 5764 5762 5761 5759 5757 5755 5754
5805 5795 5773 5770 5787 5809 5824 5834 5831 5822 5821 5822 5818 5810 5812 5827 5829 5829 5829 5826 5824 5820 5816 5812 5808 5803 5800 5796 5792 5789 5786 5784 5782 5780 5778 5776 5774 5772 5770 5769 5767 5765 5763 5762 5760 5758 5757 5755 5754
5797 5784 5774 5778 5783 5801 5821 5834 5829 5822 5818 5821 5824 5809 5812 5822 5828 5829 5827 5824 5820 5817 5814 5810 5807 5803 5799 5796 5793 5789 5786 5784 5782 5780 5778 5776 5774 5772 5770 5768 5766 5765 5763 5761 5759 5758 5756 5755 5754
5804 5785 5777 5775 5782 5795 5818 5829 5834 5828 5824 5834 5829 5811 5810 5822 5828 5826 5823 5819 5816 5813 5811 5808 5806 5802 5799 5795 5792 5789 5786 5784 5782 5780 5778 5776 5774 5771 5769 5768 5766 5765 5763 5761 5759 5757 5755 5754 5754
5806 5775 5766 5778 5785 5796 5814 5819 5831 5840 5832 5832 5834 5830 5830 5830 5826 5820 5815 5812 5810 5809 5808 5806 5803 5801 5798 5794 5791 5789 5786 5784 5782 5780 5778 5776 5773 5771 5769 5767 5766 5764 5763 5761 5760 5757 5755 5754 5753
5791 5768 5776 5791 5798 5801 5808 5814 5824 5827 5823 5824 5826 5830 5833 5826 5821 5815 5811 5809 5807 5807 5806 5804 5801 5799 5796 5793 5790 5788 5785 5783 5781 5778 5776 5774 5772 5769 5768 5766 5765 5764 5763 5762 5760 5759 5756 5754 5753
5792 5780 5788 5796 5804 5806 5806 5814 5827 5821 5815 5824 5825 5824 5825 5820 5816 5814 5812 5811 5810 5808 5806 5804 5800 5798 5795 5792 5789 5786 5784 5782 5779 5777 5774 5772 5769 5767 5766 5765 5764 5763 5763 5762 5761 5759 5757 5755 5753
5790 5791 5795 5798 5806 5806 5808 5815 5820 5821 5828 5841 5838 5832 5827 5819 5816 5815 5814 5812 5810 5807 5805 5803 5800 5796 5793 5790 5788 5785 5783 5780 5778 5775 5772 5770 5768 5766 5765 5764 5763 5763 5762 5762 5761 5760 5758 5756 5754
5786 5789 5796 5801 5804 5808 5812 5811 5815 5822 5834 5838 5834 5827 5823 5820 5817 5816 5816 5813 5810 5807 5804 5802 5799 5796 5792 5789 5786 5783 5781 5778 5776 5774 5771 5768 5766 5765 5764 5763 5763 5762 5762 5761 5760 5759 5758 5756 5754
5785 5790 5793 5798 5803 5809 5808 5808 5810 5819 5827 5825 5822 5819 5819 5818 5815 5813 5811 5809 5808 5807 5805 5803 5799 5796 5791 5787 5783 5781 5778 5775 5772 5771 5770 5768 5765 5764 5763 5762 5761 5761 5761 5760 5759 5758 5756 5754 5753
5783 5780 5785 5794 5799 5804 5803 5795 5803 5817 5817 5813 5813 5813 5813 5813 5813 5812 5812 5810 5808 5807 5805 5802 5799 5795 5790 5786 5781 5778 5776 5772 5770 5768 5767 5766 5764 5763 5762 5760 5759 5760 5759 5758 5757 5756 5754 5752 5751
5769 5762 5759 5776 5788 5794 5788 5775 5801 5810 5807 5803 5804 5806 5806 5807 5810 5811 5810 5808 5807 5805 5803 5801 5798 5793 5788 5784 5780 5777 5774 5770 5768 5766 5764 5763 5762 5761 5759 5758 5757 5758 5756 5755 5753 5752 5750 5749 5748
5739 5736 5744 5759 5777 5782 5777 5770 5792 5800 5799 5796 5797 5798 5798 5798 5801 5805 5805 5804 5803 5801 5799 5796 5794 5790 5786 5782 5778 5775 5772 5768 5765 5763 5761 5760 5759 5758 5757 5755 5755 5754 5753 5751 5749 5748 5746 5745 5744
5724 5730 5736 5742 5762 5768 5764 5764 5778 5788 5790 5789 5789 5789 5790 5791 5795 5796 5797 5796 5795 5794 5792 5790 5787 5785 5780 5775 5771 5767 5765 5763 5759 5757 5755 5755 5754 5754 5753 5751 5750 5749 5747 5745 5744 5742 5742 5741 5740
5733 5730 5727 5740 5759 5757 5754 5755 5763 5773 5776 5776 5776 5777 5779 5782 5783 5783 5784 5784 5783 5782 5781 5779 5776 5774 5771 5766 5762 5757 5754 5753 5750 5748 5746 5746 5746 5747 5746 5745 5744 5743 5741 5740 5738 5736 5736 5736 5734
5730 5724 5726 5739 5753 5751 5745 5746 5752 5758 5760 5763 5763 5763 5764 5765 5766 5767 5768 5769 5769 5769 5769 5767 5766 5763 5761 5759 5756 5753 5747 5744 5742 5740 5737 5737 5738 5738 5738 5737 5736 5736 5735 5734 5732 5730 5730 5731 5728
5727 5723 5726 5730 5738 5740 5737 5729 5732 5740 5747 5750 5751 5753 5755 5756 5756 5756 5757 5755 5755 5756 5757 5756 5754 5752 5750 5748 5744 5742 5737 5733 5730 5728 5727 5727 5728 5729 5728 5729 5730 5729 5729 5728 5727 5725 5723 5724 5724
5715 5730 5730 5728 5718 5707 5716 5696 5713 5715 5723 5730 5733 5737 5740 5743 5745 5746 5747 5745 5745 5747 5749 5748 5746 5744 5742 5739 5732 5728 5725 5722 5722 5720 5718 5718 5718 5719 5719 5721 5722 5722 5722 5721 5720 5721 5719 5718 5718
5722 5726 5721 5716 5710 5699 5699 5690 5693 5703 5705 5710 5717 5722 5726 5729 5731 5734 5736 5736 5737 5739 5739 5739 5739 5737 5735 5732 5727 5718 5715 5713 5712 5711 5708 5708 5709 5711 5712 5713 5714 5714 5714 5713 5713 5713 5713 5712 5711
5722 5711 5700 5688 5682 5673 5686 5679 5676 5690 5695 5699 5705 5709 5712 5716 5718 5720 5723 5725 5726 5727 5727 5727 5726 5727 5725 5723 5718 5712 5708 5704 5702 5700 5698 5699 5701 5703 5704 5705 5705 5705 5706 5705 5705 5705 5705 5705 5704
5705 5685 5663 5660 5653 5659 5677 5673 5673 5691 5694 5694 5695 5697 5701 5703 5704 5706 5708 5710 5712 5714 5714 5714 5712 5711 5710 5708 5706 5702 5699 5695 5693 5691 5691 5692 5693 5694 5695 5695 5696 5697 5697 5697 5696 5696 5696 5696 5695
5694 5683 5657 5647 5643 5652 5667 5666 5676 5689 5690 5689 5689 5690 5690 5691 5691 5691 5693 5694 5696 5698 5699 5698 5698 5698 5697 5693 5691 5688 5688 5686 5683 5683 5684 5685 5686 5686 5686 5686 5687 5688 5688 5688 5687 5686 5687 5687 5687
5686 5674 5673 5653 5649 5642 5650 5663 5677 5682 5681 5681 5681 5680 5680 5680 5680 5679 5679 5678 5679 5681 5682 5683 5684 5684 5684 5682 5679 5676 5676 5676 5675 5674 5675 5676 5677 5678 5678 5677 5678 5678 5679 5679 5678 5677 5678 5678 5678
5687 5671 5655 5647 5639 5631 5642 5651 5657 5670 5671 5674 5672 5670 5671 5670 5668 5667 5665 5663 5662 5663 5664 5666 5669 5670 5671 5670 5670 5668 5666 5666 5666 5665 5666 5667 5668 5669 5669 5669 5669 5670 5670 5670 5670 5670 5670 5670 5670
5674 5664 5651 5638 5636 5625 5621 5641 5667 5670 5671 5668 5666 5664 5662 5660 5657 5655 5652 5650 5649 5648 5647 5649 5652 5654 5655 5657 5658 5658 5657 5657 5657 5657 5658 5660 5661 5661 5661 5660 5661 5661 5660 5660 5660 5661 5662 5661 5661
5678 5665 5649 5641 5636 5624 5616 5636 5672 5668 5666 5661 5659 5657 5655 5651 5647 5643 5639 5636 5635 5634 5634 5635 5637 5641 5642 5645 5647 5648 5648 5648 5649 5650 5651 5652 5652 5652 5651 5651 5651 5650 5649 5649 5650 5650 5651 5650 5650